Wetbulb
51.85 48.26 45.51 44.80 44.11 44.62 44.39 45.65 45.12 44.62 44.27 43.18 42.45 42.13 42.07 41.80 41.40 40.91 40.48 39.99 39.68 38.83
48.73 48.33 46.46 45.24 45.90 46.18 45.96 45.05 44.20 43.55 42.56 42.09 41.69 41.46 41.01 40.73 40.02 39.74 40.01 39.89 39.95 38.71
47.72 46.94 46.26 46.04 46.22 45.40 44.86 43.75 42.89 42.20 41.70 41.11 40.74 40.39 39.98 39.82 39.67 38.75 39.44 39.28 38.00 37.77
45.14 46.27 45.33 45.36 44.59 43.54 43.26 42.58 41.65 41.18 40.66 40.14 39.73 39.44 39.02 38.78 38.66 38.00 38.16 38.30 37.30 36.40
45.53 43.84 44.17 43.36 42.93 43.00 41.94 41.85 40.90 40.46 39.83 39.29 38.70 38.41 37.79 37.53 38.02 37.30 36.70 36.72 36.17 35.16
42.24 42.38 42.17 41.64 41.98 41.88 40.89 40.05 39.64 39.39 38.73 38.04 37.44 37.03 37.03 36.92 36.92 37.12 36.92 36.39 35.32 34.47
41.03 41.08 40.78 40.56 40.91 40.31 39.67 38.82 38.79 38.47 37.67 36.90 36.39 35.99 35.91 36.75 36.96 37.10 36.76 36.41 35.65 34.59
40.34 40.57 39.49 39.81 39.41 39.14 38.93 38.21 37.81 36.88 36.21 35.77 35.53 35.40 34.93 36.12 36.13 35.68 35.48 35.44 35.08 34.84
39.23 38.42 38.42 38.00 37.80 36.54 36.97 36.55 36.31 35.31 35.16 34.64 34.49 32.78 34.44 34.92 34.15 34.31 34.21 33.49 33.74 34.13
38.05 37.04 36.54 36.95 36.75 36.25 35.80 35.68 34.79 34.23 33.88 33.67 33.92 32.31 33.65 34.42 33.46 33.28 33.75 33.14 32.85 32.73
35.89 35.52 35.64 35.64 35.76 35.38 35.11 34.59 33.85 33.31 33.25 32.98 33.49 31.28 32.61 33.64 32.88 33.33 33.54 33.41 33.08 32.22
36.30 35.65 35.46 34.56 34.22 34.31 33.26 33.01 32.85 32.88 32.58 32.29 32.50 31.20 31.81 32.57 31.87 31.99 32.18 33.15 32.96 32.78
36.10 35.27 34.52 33.69 32.47 32.96 33.55 32.48 32.46 32.11 32.58 31.85 30.73 32.04 31.54 32.08 31.08 30.16 30.85 31.65 32.12 33.66
34.33 33.43 32.80 32.46 32.79 32.61 32.31 32.04 31.84 31.35 32.29 31.98 31.81 30.99 31.56 31.93 30.51 30.05 29.81 29.62 29.88 31.03
MSLP
1008.03 1009.47 1010.45 1010.96 1011.87 1012.91 1013.75 1014.62 1015.46 1015.93 1016.39 1017.09 1017.57 1017.92 1018.13 1018.31 1018.51 1018.78 1018.97 1019.12 1019.13 1019.04
1008.16 1009.05 1010.00 1010.95 1011.93 1012.77 1013.65 1014.62 1015.44 1016.10 1016.70 1017.24 1017.62 1017.93 1018.17 1018.19 1018.42 1018.80 1018.94 1019.03 1019.06 1019.09
1008.09 1009.02 1009.86 1010.78 1011.65 1012.64 1013.88 1014.75 1015.45 1016.22 1016.89 1017.35 1017.70 1018.00 1018.25 1018.36 1018.56 1018.84 1018.87 1018.92 1019.04 1019.08
1008.45 1009.09 1010.00 1010.93 1011.76 1012.86 1013.99 1014.85 1015.55 1016.24 1016.86 1017.36 1017.73 1018.03 1018.27 1018.48 1018.68 1018.80 1018.87 1018.93 1018.94 1018.95
1008.73 1009.46 1010.29 1011.44 1012.19 1013.25 1014.04 1014.88 1015.55 1016.25 1016.80 1017.37 1017.84 1018.15 1018.40 1018.63 1018.67 1018.79 1018.77 1018.73 1018.76 1018.79
1009.11 1009.82 1010.83 1011.74 1012.63 1013.53 1014.30 1015.15 1015.85 1016.42 1016.92 1017.43 1018.04 1018.39 1018.63 1018.80 1018.76 1018.68 1018.63 1018.60 1018.63 1018.73
1009.40 1010.27 1011.21 1012.23 1013.19 1014.09 1014.92 1015.61 1016.25 1016.76 1017.27 1017.78 1018.20 1018.59 1018.87 1018.90 1018.79 1018.63 1018.47 1018.42 1018.47 1018.47
1010.03 1010.87 1012.02 1013.01 1013.75 1014.54 1015.24 1016.11 1016.82 1017.20 1017.71 1018.10 1018.32 1018.62 1019.13 1019.06 1018.83 1018.52 1018.31 1018.25 1018.13 1018.01
1010.29 1011.40 1012.49 1013.61 1014.57 1015.35 1015.85 1016.23 1017.22 1017.69 1018.02 1018.26 1018.47 1019.06 1019.31 1019.31 1018.96 1018.60 1018.23 1017.98 1017.86 1017.76
1011.03 1011.92 1012.89 1013.82 1014.92 1015.45 1016.53 1017.00 1017.58 1017.96 1018.08 1018.25 1018.56 1019.11 1019.29 1019.21 1018.98 1018.55 1018.09 1017.88 1017.68 1017.50
1012.13 1012.52 1013.32 1014.37 1015.37 1015.78 1016.93 1017.46 1017.73 1017.94 1018.12 1018.34 1018.54 1019.03 1019.20 1019.10 1018.74 1018.18 1017.84 1017.61 1017.38 1017.12
1011.77 1012.86 1014.12 1014.87 1015.80 1016.66 1017.36 1017.50 1017.69 1017.91 1018.14 1018.31 1018.48 1018.88 1019.06 1018.93 1018.51 1017.95 1017.56 1017.19 1016.94 1016.63
1012.54 1013.78 1014.79 1015.75 1016.57 1016.98 1017.17 1017.45 1017.72 1017.97 1018.14 1018.35 1018.56 1018.53 1018.81 1018.77 1018.41 1017.89 1017.39 1017.04 1016.63 1016.43
1013.94 1014.75 1015.56 1016.23 1016.74 1017.06 1017.31 1017.60 1017.76 1017.94 1017.91 1018.04 1018.20 1018.46 1018.60 1018.66 1018.44 1017.90 1017.46 1016.98 1016.55 1016.28
Wind_Speed
16 10 10 12 12 9 8 9 11 9 8 8 7 5 4 3 1 1 2 3 4 5
14 16 14 14 12 9 10 10 11 10 9 8 6 4 3 1 1 2 3 4 4 5
14 14 13 14 13 12 11 12 11 10 9 7 5 4 2 1 1 3 4 3 6 6
12 14 14 12 13 13 13 12 11 10 8 7 5 3 2 2 3 5 5 5 6 7
15 15 14 13 13 14 13 12 11 10 8 6 4 1 2 4 4 6 7 7 7 8
15 15 14 13 13 13 13 12 10 9 7 6 3 0 3 4 6 7 7 7 8 8
14 14 13 13 13 12 11 11 9 8 7 5 3 1 3 5 7 8 8 8 7 8
14 14 13 13 12 12 11 9 8 8 6 4 2 1 5 7 8 8 9 8 8 8
16 15 14 13 11 10 9 9 7 6 5 3 0 3 5 7 8 10 9 8 9 9
15 15 14 13 11 11 9 7 6 5 3 1 1 1 6 9 8 9 8 9 8 9
14 14 13 12 10 10 7 6 4 4 2 1 1 1 7 10 9 8 9 8 9 9
14 13 12 11 10 8 6 5 3 2 1 2 4 3 6 9 9 8 9 8 9 9
13 12 11 10 8 4 5 4 2 1 3 1 5 3 6 9 7 9 7 9 10 15
12 12 10 8 7 5 4 2 1 3 3 3 4 5 7 10 8 7 8 8 7 8
Wind_Direction
147 155 155 148 149 150 150 153 152 146 135 136 136 137 145 145 176 254 267 284 294 296
150 151 152 144 146 143 137 139 145 140 139 138 136 144 150 178 226 251 262 281 278 278
145 145 146 142 145 133 136 143 141 140 139 140 139 141 178 211 218 276 284 284 292 295
137 137 135 139 132 132 140 141 140 139 140 142 143 149 219 263 280 271 285 285 286 295
136 132 129 136 130 138 137 137 135 139 138 134 129 136 287 284 281 285 291 293 294 295
138 133 131 128 134 133 132 129 131 133 134 129 117 194 297 298 295 294 291 292 292 295
131 125 125 127 126 124 124 126 129 123 115 113 118 344 301 293 293 290 293 293 287 289
125 119 118 119 121 121 122 119 117 119 115 112 103 34 329 310 301 299 297 296 293 292
120 123 118 118 113 106 111 116 124 114 116 118 132 68 302 305 307 301 296 301 305 304
122 119 119 117 123 123 123 124 124 134 118 125 266 75 315 311 298 298 294 298 299 302
113 113 116 120 124 115 128 135 136 121 124 281 258 95 313 310 294 297 295 295 296 299
116 118 118 116 118 122 134 141 130 141 239 286 297 127 315 320 312 305 298 304 304 303
109 114 115 115 123 128 117 123 135 215 276 289 277 313 327 325 312 307 315 314 310 319
103 110 113 118 119 122 121 130 196 255 265 281 300 310 316 321 313 316 316 307 316 307